Weather in Zhezkazgan

Kazakhstan     47°52′21″N   67°26′50″E
temp.,
°C
wind,
m/s
gust,
m/s
humid.,
%
clouds,
%
prec.,
mm/h
press.,
hPa
HPBL,
m
25 may, wed
wed2500:00+20e443990 0.0 101042
03:00+17ene5103699 0.0 1010196
06:00+15ene4642100 0.0 1010106
09:00+21e333164 0.0 1009284
12:00+27se22180 0.0 10081066
15:00+30ssw33150 0.0 10082286
18:00+31ssw33150 0.0 10072395
21:00+27sse33230 0.0 100716
26 may, thu
thu2600:00+24se44260 0.0 100734
03:00+22sse47270 0.0 100789
06:00+19sw49430 0.0 1008155
09:00+24sw79405 0.0 1008590
12:00+27sw910295 0.0 10081215
15:00+28wsw911270 0.0 10091914
18:00+26w88290 0.0 10102269
21:00+19wnw810470 0.0 1012703
27 may, fri
fri2700:00+15nnw712590 0.0 1014477
03:00+12nnw511610 0.0 1015364
06:00+11n22670 0.0 101631
09:00+16n34475 0.0 1016692
12:00+20w343334 0.0 10151815
15:00+23w5524100 0.0 10142177
18:00+23wnw552196 0.0 10142273
21:00+19nnw58290 0.0 1015174
28 may, sat
sat2800:00+15nnw473611 0.0 1015113
03:00+13n45456 0.0 101679
06:00+12nne464910 0.0 1017101
09:00+17n453782 0.0 1017557
12:00+21nnw552835 0.0 10172184
15:00+23nnw4523100 0.0 10162731
18:00+24nw552199 0.0 10163046
21:00+21nnw6927100 0.0 1017380
29 may, sun
sun2900:00+19nnw3432100 0.0 101966
03:00+16n343835 0.0 102051
06:00+14n3445100 0.0 102048
09:00+20nne443297 0.0 1021440
12:00+23nne332499 0.0 10212852
15:00+25nne3320100 0.0 10203283
18:00+26ne441975 0.0 10203222
21:00+22ene33276 0.0 102130